[[{"header":{"parameterUnit":"m.s-1","parameterCategory":1,"la1":30.2991,"la2":30.254,"lo1":-89.0895,"lo2":-89.0444,"dy":0.0017,"dx":0.0017,"nx":28,"ny":28,"refTime":"2025-06-13T21:00:00:Z","depth":0,"parameterNumber":2,"parameterNumberName":"U-component_of_WINDS"},"data":[0,0,0,0,0,0,0,0,0,0,0,0,0,0,0,0,0,0,0,0,0,0,0,0,0,0,0,0,0,0,0,0,0,0,0,0,0,0,0,0,0,0,0,0,0,0,0,0,0,0,0,0,0,0,0,0,0,0,0.6891,0.6891,0,0.6946,0.6946,0.6947,0.6953,0.6953,0.6952,0.6952,0.7008,0.701,0.7012,0,0,0,0,0,0,0,0,0,0,0,0,0,0.679,0.6792,0.6891,0.6892,0.6892,0.6946,0.6946,0.6947,0.6953,0.6953,0.6952,0.6951,0.7007,0.701,0.7012,0,0,0,0,0,0,0,0,0,0,0,0,0,0.6838,0.6793,0.6891,0.6902,0.6903,0.6946,0.6946,0.6947,0.6954,0.6953,0.6952,0.6951,0.7006,0.7009,0.7012,0.7047,0,0,0.7021,0.7023,0,0,0,0,0,0,0,0,0.6836,0.6842,0.6899,0.6901,0.6903,0.6942,0.6932,0.6981,0.6954,0.6934,0.6952,0.6951,0.6987,0.6991,0.7003,0.705,0.7052,0.7022,0.7024,0.7025,0.7026,0,0,0,0,0,0,0,0.6832,0.684,0.6913,0.69,0.6902,0.6904,0.691,0.6941,0.6964,0.6936,0.6937,0.6943,0.6987,0.7,0.7005,0.7053,0.7022,0.7024,0.7026,0.7027,0.713,0.7131,0,0,0,0,0,0,0.6827,0.6837,0.6911,0.6914,0.6867,0.6906,0.6913,0.693,0.6964,0.6968,0.6944,0.6943,0.6996,0.7001,0.7007,0.7049,0.7025,0.7028,0.7029,0.7129,0.713,0.7131,0,0,0,0,0,0,0.6825,0.6834,0.6909,0.6876,0.6885,0.6909,0.6928,0.6932,0.6945,0.697,0.6974,0.6953,0.6995,0.7002,0.7037,0.7051,0.7029,0.7032,0.7128,0.7129,0.713,0.7134,0,0,0,0,0,0,0.6822,0.6833,0.6847,0.6876,0.6887,0.6938,0.6929,0.6933,0.695,0.695,0.6979,0.6984,0.6995,0.7032,0.704,0.7055,0.7034,0.7127,0.7128,0.713,0.7133,0.7136,0.7138,0,0,0,0,0,0.6818,0.6846,0.6847,0.6856,0.6905,0.6939,0.6945,0.6958,0.6951,0.6965,0.6981,0.6983,0.7048,0.7036,0.7044,0.706,0.7126,0.7128,0.713,0.7132,0.7135,0.7138,0,0,0,0,0,0,0.6818,0.685,0.6852,0.689,0.6912,0.694,0.6958,0.6961,0.6986,0.6984,0.6999,0.7006,0.7039,0.7053,0.7039,0.7095,0.7086,0.709,0.7085,0.7088,0.7091,0.7087,0.7037,0,0,0,0,0,0.6822,0.6847,0.6874,0.6904,0.6915,0.6935,0.695,0.6958,0.6981,0.699,0.7009,0.7031,0.7057,0.7073,0.7098,0.7135,0.7141,0.715,0.7153,0.7155,0.7158,0.7177,0.7181,0.7138,0.7138,0.7138,0,0,0.6831,0.6852,0.6867,0.6905,0.6923,0.6948,0.6943,0.697,0.6989,0.6994,0.7028,0.7042,0.7068,0.7103,0.712,0.7116,0.7171,0.7157,0.7159,0.7161,0.718,0.7184,0.7188,0.7139,0.7139,0.7139,0,0,0.686,0.6879,0.6906,0.6924,0.6951,0.6963,0.697,0.6997,0.7007,0.7041,0.7045,0.7068,0.7112,0.713,0.7144,0.7179,0.7181,0.7187,0.72,0.7219,0.7222,0.7225,0.7237,0.7241,0.719,0.719,0.719,0,0.6868,0.6907,0.6919,0.6946,0.6963,0.6969,0.6996,0.7013,0.7046,0.7057,0.7052,0.7107,0.7125,0.7164,0.7172,0.7184,0.7192,0.7184,0.7221,0.7224,0.7227,0.7238,0.7243,0.719,0.719,0.719,0.719,0,0.6915,0.6941,0.696,0.6992,0.701,0.7037,0.7054,0.7071,0.7076,0.7089,0.7123,0.7144,0.7173,0.7183,0.719,0.7223,0.722,0.7218,0.7209,0.7231,0.7242,0.7247,0.7191,0.7191,0.7191,0.7191,0,0,0.6946,0.6984,0.699,0.7005,0.7034,0.7055,0.7082,0.711,0.7124,0.7147,0.7169,0.7205,0.7203,0.722,0.7228,0.7245,0.727,0.724,0.7241,0.7245,0.7307,0.7309,0.7314,0.7271,0.7272,0.7273,0.7305,0,0.6978,0.7026,0.7038,0.7079,0.7103,0.7109,0.7132,0.7152,0.7165,0.7187,0.7201,0.7226,0.7221,0.7231,0.7248,0.7263,0.7283,0.7261,0.7292,0.7293,0.7285,0.732,0.7321,0.7351,0.7309,0.731,0.7311,0,0.7022,0.7046,0.7089,0.7115,0.7125,0.7146,0.7172,0.7194,0.7216,0.7224,0.7242,0.7248,0.7276,0.7265,0.7303,0.7288,0.7301,0.731,0.7312,0.7315,0.7303,0.7323,0.736,0.7365,0.7318,0.7317,0.7317,0,0.704,0.7082,0.7114,0.7126,0.7156,0.7171,0.7184,0.7206,0.7222,0.7245,0.7255,0.7281,0.7295,0.7314,0.7327,0.7318,0.7363,0.7354,0.737,0.7369,0.7379,0.7378,0.7418,0.7388,0.7388,0.7388,0.7388,0,0.7075,0.7101,0.7122,0.7141,0.717,0.7183,0.7211,0.7225,0.7244,0.7266,0.7272,0.7292,0.7307,0.7329,0.7339,0.7368,0.7375,0.7381,0.7384,0.7381,0.738,0.739,0.7388,0.7389,0.7389,0.7389,0.7388,0,0.7099,0.7114,0.7149,0.7175,0.7182,0.7202,0.7224,0.7243,0.7255,0.7282,0.7289,0.7308,0.7334,0.7348,0.7381,0.7388,0.742,0.7422,0.7412,0.7413,0.7428,0.7427,0.7476,0.7483,0.7448,0.7448,0.7449,0,0.7121,0.7141,0.7169,0.7184,0.7197,0.7221,0.7237,0.725,0.7267,0.7294,0.7309,0.7335,0.7357,0.7398,0.7414,0.7439,0.7441,0.7456,0.7445,0.7441,0.744,0.7439,0.7441,0.7458,0.7459,0.7459,0.7459,0,0.7156,0.7162,0.7185,0.7211,0.723,0.725,0.7271,0.7282,0.7299,0.7317,0.7343,0.736,0.7393,0.7419,0.7444,0.7458,0.7461,0.7463,0.7467,0.7465,0.7458,0.7461,0.7418,0.7461,0.7461,0.7461,0.7461,0.7461,0.7179,0.7197,0.722,0.7245,0.7261,0.728,0.7298,0.7313,0.7335,0.7363,0.7369,0.7397,0.7418,0.7453,0.7467,0.7489,0.7486,0.7493,0.7495,0.7496,0.7497,0.7455,0.7494,0.7493,0.7493,0.7493,0.7493,0,0.7215,0.7229,0.7252,0.7281,0.73,0.7301,0.7324,0.734,0.7364,0.7384,0.7405,0.7435,0.7459,0.7478,0.7503,0.7516,0.7518,0.7522,0.7521,0.7524,0.7498,0.7491,0.752,0.752,0.752,0.752,0.752,0.752,0.7236,0.7266,0.7274,0.7312,0.7327,0.7354,0.7366,0.7383,0.7399,0.7432,0.7453,0.7464,0.7483,0.751,0.7532,0.7537,0.7545,0.7549,0.7554,0.7529,0.7526,0.7523,0.7517,0.7551,0.7551,0.7578,0.7578,0.7579]},{"header":{"parameterUnit":"m.s-1","parameterCategory":1,"la1":30.2991,"la2":30.254,"lo1":-89.0895,"lo2":-89.0444,"dy":0.0017,"dx":0.0017,"nx":28,"ny":28,"refTime":"2025-06-13T21:00:00:Z","depth":0,"parameterNumber":3,"parameterNumberName":"V-component_of_WINDS"},"data":[0,0,0,0,0,0,0,0,0,0,0,0,0,0,0,0,0,0,0,0,0,0,0,0,0,0,0,0,0,0,0,0,0,0,0,0,0,0,0,0,0,0,0,0,0,0,0,0,0,0,0,0,0,0,0,0,0,0,2.7448,2.7448,0,2.7492,2.7493,2.7493,2.7461,2.746,2.7459,2.7457,2.7499,2.7501,2.7504,0,0,0,0,0,0,0,0,0,0,0,0,0,2.7331,2.7333,2.7448,2.7448,2.7449,2.7492,2.7493,2.7493,2.7462,2.746,2.7458,2.7457,2.7498,2.7501,2.7504,0,0,0,0,0,0,0,0,0,0,0,0,0,2.7379,2.7334,2.7448,2.7438,2.7438,2.7492,2.7493,2.7494,2.7462,2.746,2.7458,2.7456,2.7497,2.7501,2.7504,2.7569,0,0,2.7516,2.7517,0,0,0,0,0,0,0,0,2.7376,2.7383,2.7439,2.7439,2.7439,2.7469,2.7467,2.7519,2.7462,2.7453,2.7457,2.7455,2.7491,2.7495,2.7508,2.7571,2.7573,2.7516,2.7518,2.752,2.7521,0,0,0,0,0,0,0,2.7373,2.7381,2.7465,2.744,2.744,2.743,2.7435,2.7477,2.7483,2.7453,2.7451,2.7457,2.749,2.7504,2.7508,2.7574,2.7516,2.7519,2.7521,2.7523,2.7692,2.7694,0,0,0,0,0,0,2.7371,2.7379,2.7464,2.7467,2.7402,2.7434,2.7439,2.7461,2.7482,2.7484,2.7459,2.7455,2.7499,2.7504,2.751,2.7587,2.752,2.7523,2.7525,2.769,2.7692,2.7695,0,0,0,0,0,0,2.7369,2.7379,2.7462,2.7422,2.7432,2.7439,2.7464,2.7463,2.7478,2.7487,2.7487,2.7472,2.7497,2.7504,2.7555,2.7588,2.7525,2.7528,2.7687,2.7691,2.7694,2.7742,0,0,0,0,0,0,2.7365,2.7378,2.7404,2.7423,2.7434,2.7508,2.7466,2.7466,2.7484,2.748,2.7499,2.75,2.7496,2.755,2.7558,2.7592,2.7531,2.7684,2.7689,2.7693,2.7738,2.7747,2.7755,0,0,0,0,0,2.7361,2.7415,2.7406,2.7416,2.7467,2.751,2.7516,2.7512,2.7487,2.7512,2.7518,2.75,2.7583,2.7555,2.7565,2.76,2.7682,2.7687,2.7692,2.7734,2.7745,2.7754,0,0,0,0,0,0,2.7399,2.7417,2.7407,2.7469,2.7488,2.7504,2.7536,2.7524,2.7549,2.7544,2.7536,2.7541,2.7594,2.7601,2.757,2.7663,2.7628,2.7636,2.7656,2.7667,2.7676,2.7673,2.7534,0,0,0,0,0,2.7414,2.7449,2.7463,2.7516,2.7526,2.753,2.7548,2.7543,2.7562,2.757,2.7579,2.7598,2.7628,2.7648,2.7676,2.7738,2.7742,2.7767,2.7775,2.7782,2.7789,2.7822,2.7834,2.7712,2.7712,2.7712,0,0,2.7446,2.7461,2.7483,2.7524,2.7538,2.7573,2.7537,2.7575,2.7601,2.7575,2.7624,2.7631,2.7651,2.7708,2.7733,2.7716,2.7823,2.7789,2.7794,2.7797,2.7829,2.784,2.7851,2.7716,2.7715,2.7714,0,0,2.7523,2.7538,2.7584,2.7599,2.7622,2.7624,2.7635,2.7653,2.7658,2.7706,2.7688,2.7717,2.7769,2.7784,2.7799,2.7881,2.7865,2.789,2.7935,2.7967,2.7977,2.7985,2.8015,2.8025,2.7896,2.7896,2.7896,0,2.756,2.7614,2.7609,2.7649,2.7667,2.7647,2.7692,2.7707,2.7737,2.7749,2.773,2.7795,2.7807,2.7867,2.7887,2.7899,2.791,2.7888,2.7976,2.7984,2.7992,2.802,2.8031,2.7899,2.7899,2.7899,2.7898,0,2.7658,2.7695,2.7729,2.7761,2.7782,2.7825,2.7825,2.7848,2.784,2.7844,2.7893,2.7906,2.7937,2.795,2.7943,2.8009,2.7998,2.7977,2.7942,2.8007,2.8033,2.8044,2.7903,2.7902,2.7902,2.7901,0,0,2.776,2.7788,2.7801,2.7815,2.7838,2.7866,2.7907,2.7939,2.7958,2.7979,2.8013,2.8057,2.8038,2.8055,2.8048,2.8077,2.8141,2.8053,2.8053,2.8069,2.8215,2.8231,2.8243,2.8131,2.8133,2.8134,2.8213,0,2.7839,2.7913,2.7909,2.7977,2.8012,2.7992,2.8028,2.8045,2.8049,2.8078,2.8081,2.8113,2.8086,2.8096,2.8123,2.8128,2.8171,2.8122,2.8161,2.8163,2.8158,2.8257,2.8274,2.8348,2.8223,2.8225,2.8226,0,2.794,2.7967,2.8039,2.8057,2.8071,2.8104,2.8132,2.816,2.8178,2.8179,2.8198,2.8187,2.8227,2.8191,2.8246,2.8213,2.8228,2.8233,2.8236,2.824,2.8199,2.8264,2.8372,2.8383,2.8242,2.8241,2.824,0,2.8008,2.8061,2.8112,2.8124,2.8146,2.817,2.818,2.8197,2.8216,2.8239,2.8251,2.8279,2.8294,2.8315,2.8312,2.8286,2.8368,2.8331,2.8369,2.8369,2.8388,2.8387,2.85,2.8397,2.8397,2.8397,2.8397,0,2.8097,2.8142,2.8143,2.8174,2.8223,2.8218,2.8266,2.8274,2.8289,2.832,2.8304,2.8333,2.8326,2.8355,2.8352,2.8398,2.8404,2.8406,2.8404,2.8408,2.8408,2.8418,2.8413,2.84,2.8399,2.8399,2.8398,0,2.8181,2.8184,2.8237,2.8254,2.826,2.8295,2.8309,2.8338,2.834,2.838,2.8389,2.8392,2.8425,2.8424,2.846,2.8458,2.8515,2.8507,2.8509,2.8508,2.8546,2.8543,2.8671,2.8687,2.8573,2.8574,2.8575,0,2.8238,2.8272,2.8294,2.8314,2.8326,2.8359,2.8378,2.8373,2.8394,2.8418,2.8444,2.8475,2.85,2.8553,2.8559,2.8586,2.858,2.8622,2.8584,2.8586,2.8581,2.8579,2.8582,2.863,2.8632,2.8633,2.8633,0,2.8338,2.8338,2.8367,2.8398,2.8422,2.8445,2.8465,2.8483,2.848,2.8504,2.8538,2.8557,2.8595,2.8627,2.8653,2.8662,2.8647,2.8646,2.8656,2.866,2.866,2.8661,2.8531,2.8643,2.8642,2.8641,2.8641,2.864,2.8411,2.8441,2.8461,2.8494,2.8509,2.8529,2.8557,2.8564,2.8593,2.8624,2.8619,2.8657,2.8674,2.8708,2.872,2.8748,2.8733,2.8748,2.8752,2.8756,2.8761,2.8655,2.8753,2.8753,2.8753,2.8752,2.8752,0,2.8511,2.8523,2.8553,2.8584,2.861,2.8595,2.8617,2.8639,2.8674,2.8692,2.8717,2.8756,2.8786,2.8793,2.8822,2.8844,2.8838,2.8851,2.885,2.8852,2.8772,2.8761,2.8856,2.8856,2.8856,2.8856,2.8856,2.8856,2.8566,2.8616,2.8618,2.8674,2.8685,2.8724,2.8738,2.8756,2.877,2.8815,2.884,2.8845,2.8859,2.8888,2.8915,2.8916,2.8928,2.8944,2.8943,2.8868,2.8858,2.8848,2.8837,2.8947,2.8947,2.9021,2.9021,2.9022]}]]